Location: Fredericton
(45.9636°N, 66.6431°W)
Time: 17:35:29
(UTC-03:00)

Envisat - Pass Details

Date: 16 June 2023
Orbit: 763 x 764 km, 98.2° (Epoch: 25 September)

Event Time Altitude Azimuth Distance (km) Brightness Sun altitude
Rises 04:38:57 0° 21° (NNE) 3,240 7.7 -8.2°
Reaches altitude 10° 04:41:28 10° 30° (NNE) 2,310 7.0 -7.9°
Maximum altitude 04:46:07 35° 96° (E) 1,222 4.5 -7.3°
Drops below altitude 10° 04:50:43 10° 162° (SSE) 2,295 5.2 -6.8°
Sets 04:53:12 0° 171° (S) 3,216 5.9 -6.5°
